Indianapolis, IN

2:58 PM EDT on September 18, 2019 (GMT -0400)
Indianapolis International

Weather History for KIND - July, 2019

Change the Weather History Date:

Sunday, July 14, 2019

  Actual Average Record
Temperature  
Mean Temperature 80 °F 76 °F  
Max Temperature 91 °F 85 °F 106 °F (1936)
Min Temperature 69 °F 66 °F 48 °F (1975)
Degree Days  
Heating Degree Days 0 0  
Month to date heating degree days 0 0  
Since 1 June heating degree days 9 16  
Since 1 July heating degree days 0 0  
Cooling Degree Days 15 11  
Month to date cooling degree days 200 151  
Year to date cooling degree days 514 461  
Since 1 June cooling degree days 403 377  
Growing Degree Days 30 (Base 50)    
Moisture  
Dew Point 66 °F    
Average Humidity 63    
Maximum Humidity 84    
Minimum Humidity 41    
Precipitation  
Precipitation 0.00 in 0.16 in 2.96 in (1962)
Month to date precipitation 0.84 2.22  
Year to date precipitation 29.99 23.87  
Snow  
Snow 0.00 in 0.00 in 0.00 in ()
Month to date snowfall 0.0 0.0  
Since 1 June snowfall 0.0 0.0  
Since 1 July snowfall 0.0 0.0  
Snow Depth 0.00 in    
Sea Level Pressure  
Sea Level Pressure 30.09 in    
Wind  
Wind Speed 7 mph (SW)    
Max Wind Speed 15 mph    
Max Gust Speed 20 mph    
Visibility 10 miles    
Events      
T = Trace of Precipitation, MM = Missing Value Source: NWS Daily Summary

Daily Weather History Graph

Daily Weather History Graph

Search for Another Location

Airport or City:

Astronomy

Jul. 14, 2019 Rise Set
Actual Time 6:28 AM EDT 9:12 PM EDT
Civil Twilight 5:57 AM EDT 9:44 PM EDT
Nautical Twilight 5:17 AM EDT 10:24 PM EDT
Astronomical Twilight 4:32 AM EDT 11:09 PM EDT
Moon 7:34 PM EDT (7/14) 4:29 AM EDT (7/14)
Length of Visible Light 15h 47m
Length of Day
14h 43m
Waxing Gibbous, 95% of the Moon is Illuminated
Jul 14
Waxing Gibbous
Jul 16
Full
Jul 24
Last Quarter
Jul 31
New
Aug 7
First Quarter

Hourly Weather History & Observations

Time (EDT) Temp. Heat Index Dew Point Humidity Pressure Visibility Wind Dir Wind Speed Gust Speed Precip Events Conditions
12:54 AM 73.9 °F - 66.0 °F 76% 30.06 in 10.0 mi SW 6.9 mph - N/A   Partly Cloudy
1:54 AM 72.0 °F - 66.0 °F 81% 30.08 in 10.0 mi SW 4.6 mph - N/A   Partly Cloudy
2:54 AM 72.0 °F - 64.9 °F 78% 30.07 in 10.0 mi WSW 6.9 mph - N/A   Scattered Clouds
3:54 AM 71.1 °F - 64.0 °F 78% 30.06 in 10.0 mi WSW 6.9 mph - N/A   Scattered Clouds
4:54 AM 70.0 °F - 63.0 °F 78% 30.05 in 10.0 mi WSW 6.9 mph - N/A   Partly Cloudy
5:54 AM 70.0 °F - 63.0 °F 78% 30.07 in 10.0 mi WNW 4.6 mph - N/A   Scattered Clouds
6:54 AM 73.0 °F - 63.0 °F 71% 30.09 in 10.0 mi Calm Calm - N/A   Scattered Clouds
7:54 AM 75.0 °F - 64.0 °F 69% 30.12 in 10.0 mi NE 4.6 mph - N/A   Scattered Clouds
8:54 AM 77.0 °F - 66.0 °F 69% 30.11 in 10.0 mi SSE 8.1 mph - N/A   Scattered Clouds
9:54 AM 79.0 °F - 66.9 °F 66% 30.11 in 10.0 mi SE 6.9 mph - N/A   Mostly Cloudy
10:54 AM 82.0 °F 84.5 °F 66.9 °F 60% 30.13 in 10.0 mi Variable 4.6 mph - N/A   Scattered Clouds
11:54 AM 86.0 °F 87.6 °F 64.9 °F 49% 30.13 in 10.0 mi West 6.9 mph - 0.00 in   Scattered Clouds
12:54 PM 88.0 °F 90.3 °F 66.0 °F 48% 30.13 in 10.0 mi West 6.9 mph - N/A   Scattered Clouds
1:54 PM 89.1 °F 91.3 °F 66.0 °F 46% 30.11 in 10.0 mi NW 5.8 mph - N/A   Scattered Clouds
2:54 PM 89.1 °F 90.0 °F 63.0 °F 42% 30.10 in 10.0 mi Variable 5.8 mph 17.3 mph N/A   Scattered Clouds
3:54 PM 90.0 °F 92.4 °F 66.0 °F 45% 30.09 in 10.0 mi SW 9.2 mph - N/A   Scattered Clouds
4:54 PM 90.0 °F 91.7 °F 64.9 °F 43% 30.07 in 10.0 mi SSW 10.4 mph 20.7 mph N/A   Scattered Clouds
5:54 PM 90.0 °F 92.4 °F 66.0 °F 45% 30.07 in 10.0 mi WSW 12.7 mph - N/A   Scattered Clouds
6:54 PM 89.1 °F 91.3 °F 66.0 °F 46% 30.06 in 10.0 mi WSW 11.5 mph - N/A   Scattered Clouds
7:54 PM 88.0 °F 90.7 °F 66.9 °F 49% 30.08 in 10.0 mi West 9.2 mph - N/A   Scattered Clouds
8:54 PM 84.0 °F 86.5 °F 66.9 °F 56% 30.09 in 10.0 mi NW 3.5 mph - N/A   Mostly Cloudy
9:54 PM 81.0 °F 83.3 °F 66.9 °F 62% 30.10 in 10.0 mi East 12.7 mph - N/A   Mostly Cloudy
10:03 PM 80.1 °F 82.3 °F 66.9 °F 64% 30.12 in 10.0 mi East 9.2 mph - N/A   Mostly Cloudy
10:54 PM 77.0 °F - 66.9 °F 71% 30.09 in 10.0 mi SE 8.1 mph - N/A   Scattered Clouds
11:54 PM 77.0 °F - 66.9 °F 71% 30.10 in 10.0 mi South 5.8 mph - N/A   Scattered Clouds